DB0RV-13 Weather Reports


Display with metric or nautical units.
time (UTC)temp
F
wind
direction
speed
MPH
gust
MPH
rain 1hr
in
rain 24hr
in
rain mn
in
humidity
%
barometer
mb
20260903174001 72 225 4.0 0.0 0.00 0.00 0.00 53 1020.7
20260903173502 72 235 2.0 0.0 0.00 0.00 0.00 53 1020.7
20260903173002 72 225 4.0 0.0 0.00 0.00 0.00 52 1020.7
20260903172502 73 232 4.0 0.0 0.00 0.00 0.00 50 1020.6
20260903172001 73 242 3.0 0.0 0.00 0.00 0.00 49 1020.6
20260903171502 74 257 3.0 0.0 0.00 0.00 0.00 47 1020.5
20260903171001 74 263 3.0 0.0 0.00 0.00 0.00 48 1020.6
20260903170502 74 236 3.0 0.0 0.00 0.00 0.00 45 1020.5
20260903170001 74 242 4.0 0.0 0.00 0.00 0.00 44 1020.5
20260903165501 75 260 3.0 0.0 0.00 0.00 0.00 44 1020.6
20260903165001 75 269 4.0 0.0 0.00 0.00 0.00 43 1020.6
20260903164501 75 281 6.0 0.0 0.00 0.00 0.00 43 1020.6
20260903164002 75 247 3.0 0.0 0.00 0.00 0.00 42 1020.6
20260903163501 75 265 6.0 0.0 0.00 0.00 0.00 41 1020.6
20260903163002 75 0 0.0 0.0 0.00 0.00 0.00 42 1020.6
20260903162501 75 278 4.0 0.0 0.00 0.00 0.00 41 1020.7
20260903162002 75 249 3.0 0.0 0.00 0.00 0.00 41 1020.7
20260903161501 75 256 6.0 0.0 0.00 0.00 0.00 41 1020.7
20260903161001 75 230 6.0 0.0 0.00 0.00 0.00 40 1020.7
20260903160501 75 265 7.0 0.0 0.00 0.00 0.00 40 1020.7
20260903160002 75 256 4.0 0.0 0.00 0.00 0.00 40 1020.7
20260903155502 75 267 3.0 0.0 0.00 0.00 0.00 40 1020.8
20260903155001 75 258 7.0 0.0 0.00 0.00 0.00 39 1020.7
20260903154502 75 239 1.0 0.0 0.00 0.00 0.00 40 1020.8
20260903154001 75 287 6.0 0.0 0.00 0.00 0.00 40 1020.8
20260903153502 75 330 0.0 0.0 0.00 0.00 0.00 41 1020.8
20260903153003 75 223 2.0 0.0 0.00 0.00 0.00 41 1020.7
20260903152502 75 253 5.0 0.0 0.00 0.00 0.00 39 1020.8
20260903152001 75 249 6.0 0.0 0.00 0.00 0.00 38 1020.7
20260903151502 75 257 7.0 0.0 0.00 0.00 0.00 39 1020.7
20260903151002 76 279 6.0 0.0 0.00 0.00 0.00 39 1020.9
20260903150501 76 240 8.0 0.0 0.00 0.00 0.00 39 1020.8
20260903150002 76 253 7.0 0.0 0.00 0.00 0.00 41 1020.8
20260903145502 77 241 2.0 0.0 0.00 0.00 0.00 37 1021.0
20260903145002 76 295 4.0 0.0 0.00 0.00 0.00 38 1020.9
20260903144501 77 289 5.0 0.0 0.00 0.00 0.00 38 1021.0
20260903144002 76 253 4.0 0.0 0.00 0.00 0.00 40 1020.9
20260903143501 76 244 8.0 0.0 0.00 0.00 0.00 41 1020.9
20260903143002 76 256 4.0 0.0 0.00 0.00 0.00 40 1021.0
20260903142502 76 246 7.0 0.0 0.00 0.00 0.00 42 1021.0
20260903142001 75 272 7.0 0.0 0.00 0.00 0.00 41 1021.0
20260903141502 75 229 8.0 0.0 0.00 0.00 0.00 42 1021.1
20260903141001 75 261 6.0 0.0 0.00 0.00 0.00 41 1021.1
20260903140502 75 255 4.0 0.0 0.00 0.00 0.00 42 1021.2
20260903140001 75 245 6.0 0.0 0.00 0.00 0.00 43 1021.2
20260903135502 75 254 5.0 0.0 0.00 0.00 0.00 45 1021.5
20260903135001 75 261 1.0 0.0 0.00 0.00 0.00 42 1021.5
20260903134502 75 246 3.0 0.0 0.00 0.00 0.00 43 1021.5
20260903134002 76 271 3.0 0.0 0.00 0.00 0.00 42 1021.4
20260903133502 75 252 3.0 0.0 0.00 0.00 0.00 41 1021.2
20260903133002 75 246 4.0 0.0 0.00 0.00 0.00 42 1021.3
20260903132501 74 245 3.0 0.0 0.00 0.00 0.00 42 1021.2
20260903132002 74 271 4.0 0.0 0.00 0.00 0.00 44 1021.2
20260903131501 74 271 9.0 0.0 0.00 0.00 0.00 44 1021.3
20260903131002 74 278 11.0 0.0 0.00 0.00 0.00 46 1021.2
20260903130501 73 243 4.0 0.0 0.00 0.00 0.00 47 1021.1
20260903130002 73 271 8.0 0.0 0.00 0.00 0.00 46 1021.3
20260903125502 73 295 4.0 0.0 0.00 0.00 0.00 44 1021.3
20260903125002 73 274 1.0 0.0 0.00 0.00 0.00 43 1021.3
20260903124502 73 265 7.0 0.0 0.00 0.00 0.00 43 1021.4
20260903124001 73 264 3.0 0.0 0.00 0.00 0.00 45 1021.3
20260903123502 73 280 10.0 0.0 0.00 0.00 0.00 44 1021.4
20260903123001 73 274 6.0 0.0 0.00 0.00 0.00 47 1021.3
20260903122502 73 237 7.0 0.0 0.00 0.00 0.00 49 1021.4
20260903122001 73 267 3.0 0.0 0.00 0.00 0.00 49 1021.3
20260903121502 73 238 4.0 0.0 0.00 0.00 0.00 48 1021.5
20260903121001 73 239 3.0 0.0 0.00 0.00 0.00 47 1021.6
20260903120502 72 237 7.0 0.0 0.00 0.00 0.00 46 1021.7
20260903120002 72 300 6.0 0.0 0.00 0.00 0.00 49 1021.8
20260903115502 73 276 7.0 0.0 0.00 0.00 0.00 49 1021.9
20260903115002 73 280 14.0 0.0 0.00 0.00 0.00 50 1021.8
20260903114501 73 254 7.0 0.0 0.00 0.00 0.00 51 1021.8
20260903114002 73 260 7.0 0.0 0.00 0.00 0.00 50 1021.8
20260903113502 73 253 14.0 0.0 0.00 0.00 0.00 50 1021.7
20260903113002 72 240 10.0 0.0 0.00 0.00 0.00 50 1021.9
20260903112501 73 249 13.0 0.0 0.00 0.00 0.00 50 1021.8
20260903112002 74 232 8.0 0.0 0.00 0.00 0.00 50 1022.0
20260903111501 73 284 8.0 0.0 0.00 0.00 0.00 50 1022.0
20260903111002 73 262 3.0 0.0 0.00 0.00 0.00 50 1021.9
20260903110502 73 262 8.0 0.0 0.00 0.00 0.00 49 1022.0
20260903110001 71 241 8.0 0.0 0.00 0.00 0.00 50 1022.0
20260903105502 72 253 3.0 0.0 0.00 0.00 0.00 49 1022.0
20260903105001 72 258 8.0 0.0 0.00 0.00 0.00 50 1021.9
20260903104502 72 261 8.0 0.0 0.00 0.00 0.00 50 1022.1
20260903104001 72 243 8.0 0.0 0.00 0.00 0.00 51 1022.1
20260903103503 71 268 9.0 0.0 0.00 0.00 0.00 51 1021.9
20260903103001 71 243 7.0 0.0 0.00 0.00 0.00 52 1022.2
20260903102502 71 250 5.0 0.0 0.00 0.00 0.00 52 1022.2
20260903102002 70 258 8.0 0.0 0.00 0.00 0.00 52 1022.2
20260903101501 70 265 10.0 0.0 0.00 0.00 0.00 52 1022.1
20260903101002 71 282 4.0 0.0 0.00 0.00 0.00 52 1022.2
20260903100501 71 268 6.0 0.0 0.00 0.00 0.00 52 1022.2
20260903100002 70 271 4.0 0.0 0.00 0.00 0.00 52 1022.2
20260903095501 70 238 9.0 0.0 0.00 0.00 0.00 55 1022.2
20260903095002 71 263 5.0 0.0 0.00 0.00 0.00 57 1022.2
20260903094501 71 221 2.0 0.0 0.00 0.00 0.00 59 1022.3
20260903094001 70 225 4.0 0.0 0.00 0.00 0.00 58 1022.3
20260903093502 69 243 3.0 0.0 0.00 0.00 0.00 58 1022.2
20260903093001 70 243 10.0 0.0 0.00 0.00 0.00 60 1022.1
20260903092502 70 238 2.0 0.0 0.00 0.00 0.00 59 1022.3
20260903092002 69 239 5.0 0.0 0.00 0.00 0.00 62 1022.4
20260903091502 69 251 5.0 0.0 0.00 0.00 0.00 62 1022.3
20260903091001 68 186 3.0 0.0 0.00 0.00 0.00 63 1022.4
20260903090502 68 214 4.0 0.0 0.00 0.00 0.00 63 1022.3
20260903090001 68 238 8.0 0.0 0.00 0.00 0.00 64 1022.3
20260903085502 68 247 7.0 0.0 0.00 0.00 0.00 63 1022.4
20260903085002 67 278 6.0 0.0 0.00 0.00 0.00 64 1022.5
20260903084501 67 248 6.0 0.0 0.00 0.00 0.00 63 1022.5
20260903084002 67 248 6.0 0.0 0.00 0.00 0.00 65 1022.6
20260903083501 67 241 4.0 0.0 0.00 0.00 0.00 64 1022.6
20260903083002 67 273 3.0 0.0 0.00 0.00 0.00 64 1022.5
20260903082501 67 259 4.0 0.0 0.00 0.00 0.00 64 1022.3
20260903082002 66 213 6.0 0.0 0.00 0.00 0.00 65 1022.2
20260903081501 65 206 7.0 0.0 0.00 0.00 0.00 65 1022.1
20260903081002 66 202 8.0 0.0 0.00 0.00 0.00 67 1022.0
20260903080501 65 207 6.0 0.0 0.00 0.00 0.00 66 1021.9
20260903080002 65 181 5.0 0.0 0.00 0.00 0.00 67 1022.0
20260903075502 65 232 3.0 0.0 0.00 0.00 0.00 69 1022.1
20260903075002 65 206 4.0 0.0 0.00 0.00 0.00 69 1022.1
20260903074502 64 202 6.0 0.0 0.00 0.00 0.00 69 1022.0
20260903074001 64 216 7.0 0.0 0.00 0.00 0.00 70 1022.0
20260903073502 63 186 3.0 0.0 0.00 0.00 0.00 71 1022.1
20260903073001 62 208 2.0 0.0 0.00 0.00 0.00 72 1022.1
20260903072502 62 203 3.0 0.0 0.00 0.00 0.00 74 1022.3
20260903072001 62 207 6.0 0.0 0.00 0.00 0.00 75 1022.1
20260903071502 62 186 4.0 0.0 0.00 0.00 0.00 76 1022.3
20260903071002 61 193 4.0 0.0 0.00 0.00 0.00 76 1022.4
20260903070501 61 196 3.0 0.0 0.00 0.00 0.00 77 1022.4
20260903070002 60 152 2.0 0.0 0.00 0.00 0.00 78 1022.5
20260903065501 61 187 3.0 0.0 0.00 0.00 0.00 78 1022.5
20260903065002 61 178 2.0 0.0 0.00 0.00 0.00 76 1022.7
20260903064501 62 200 1.0 0.0 0.00 0.00 0.00 74 1022.6
20260903064001 60 56 0.0 0.0 0.00 0.00 0.00 76 1022.7
20260903063501 59 0 0.0 0.0 0.00 0.00 0.00 76 1022.6
20260903063002 60 61 1.0 0.0 0.00 0.00 0.00 76 1022.5
20260903062502 59 0 0.0 0.0 0.00 0.00 0.00 78 1022.4
20260903062001 59 185 1.0 0.0 0.00 0.00 0.00 76 1022.2
20260903061502 58 62 0.0 0.0 0.00 0.00 0.00 78 1022.3
20260903061001 58 59 0.0 0.0 0.00 0.00 0.00 77 1022.2
20260903060502 59 329 1.0 0.0 0.00 0.00 0.00 76 1022.2
20260903060001 57 336 1.0 0.0 0.00 0.00 0.00 79 1022.1
20260903055502 56 341 1.0 0.0 0.00 0.00 0.00 82 1022.0
20260903055001 55 69 3.0 0.0 0.00 0.00 0.00 85 1021.9
20260903054501 54 318 1.0 0.0 0.00 0.00 0.00 85 1021.9
20260903054002 54 314 3.0 0.0 0.00 0.00 0.00 86 1022.0
20260903053501 54 334 3.0 0.0 0.00 0.00 0.00 86 1022.0
20260903053002 54 334 1.0 0.0 0.00 0.00 0.00 86 1021.8
20260903052501 53 0 0.0 0.0 0.00 0.00 0.00 87 1021.6
20260903052002 54 106 1.0 0.0 0.00 0.00 0.00 85 1021.8
20260903051501 55 115 2.0 0.0 0.00 0.00 0.00 83 1021.9
20260903051001 55 128 2.0 0.0 0.00 0.00 0.00 83 1021.9
20260903050501 55 0 0.0 0.0 0.00 0.00 0.00 86 1022.0
20260903050001 53 7 1.0 0.0 0.00 0.00 0.00 87 1021.9
20260903045502 54 333 2.0 0.0 0.00 0.00 0.00 87 1021.8
20260903045001 54 344 3.0 0.0 0.00 0.00 0.00 85 1021.6
20260903044502 54 27 2.0 0.0 0.00 0.00 0.00 83 1021.6
20260903044001 56 7 3.0 0.0 0.00 0.00 0.00 81 1021.7
20260903043502 55 24 2.0 0.0 0.00 0.00 0.00 82 1021.5
20260903043001 55 33 0.0 0.0 0.00 0.00 0.00 82 1021.5
20260903042501 55 323 0.0 0.0 0.00 0.00 0.00 83 1021.4
20260903042001 55 345 1.0 0.0 0.00 0.00 0.00 84 1021.4
20260903041501 55 317 1.0 0.0 0.00 0.00 0.00 84 1021.3
20260903041002 55 315 1.0 0.0 0.00 0.00 0.00 84 1021.4
20260903040501 55 344 0.0 0.0 0.00 0.00 0.00 84 1021.5
20260903040002 55 328 2.0 0.0 0.00 0.00 0.00 82 1021.4
20260903035503 56 31 2.0 0.0 0.00 0.00 0.00 83 1021.4
20260903035001 56 35 1.0 0.0 0.00 0.00 0.00 82 1021.4
20260903034502 56 70 1.0 0.0 0.00 0.00 0.00 81 1021.4
20260903034002 56 42 2.0 0.0 0.00 0.00 0.00 82 1021.4
20260903033501 56 5 2.0 0.0 0.00 0.00 0.00 82 1021.4
20260903033001 56 30 1.0 0.0 0.00 0.00 0.00 82 1021.4
20260903032502 55 33 1.0 0.0 0.00 0.00 0.00 84 1021.4
20260903032001 55 31 1.0 0.0 0.00 0.00 0.00 83 1021.5
20260903031501 56 14 1.0 0.0 0.00 0.00 0.00 82 1021.4
20260903031002 56 12 2.0 0.0 0.00 0.00 0.00 82 1021.5
20260903030501 56 334 3.0 0.0 0.00 0.00 0.00 82 1021.4
20260903030002 56 354 2.0 0.0 0.00 0.00 0.00 82 1021.5
20260903025502 57 0 0.0 0.0 0.00 0.00 0.00 80 1021.4
20260903025002 57 20 0.0 0.0 0.00 0.00 0.00 80 1021.4
20260903024501 57 0 0.0 0.0 0.00 0.00 0.00 80 1021.3
20260903024002 57 32 2.0 0.0 0.00 0.00 0.00 81 1021.4
20260903023501 57 50 1.0 0.0 0.00 0.00 0.00 80 1021.3
20260903023001 57 45 1.0 0.0 0.00 0.00 0.00 81 1021.3
20260903022502 56 57 1.0 0.0 0.00 0.00 0.00 82 1021.4
20260903022001 57 91 2.0 0.0 0.00 0.00 0.00 81 1021.4
20260903021501 57 0 0.0 0.0 0.00 0.00 0.00 81 1021.4
20260903021002 57 86 0.0 0.0 0.00 0.00 0.00 81 1021.4
20260903020501 57 9 0.0 0.0 0.00 0.00 0.00 80 1021.6
20260903020001 57 12 1.0 0.0 0.00 0.00 0.00 81 1021.5
20260903015502 57 357 0.0 0.0 0.00 0.00 0.00 81 1021.5
20260903015001 58 67 1.0 0.0 0.00 0.00 0.00 78 1021.5
20260903014501 58 46 1.0 0.0 0.00 0.00 0.00 80 1021.5
20260903014002 58 299 0.0 0.0 0.00 0.00 0.00 80 1021.5
20260903013501 58 39 1.0 0.0 0.00 0.00 0.00 81 1021.4
20260903013001 58 31 1.0 0.0 0.00 0.00 0.00 80 1021.3
20260903012502 58 0 2.0 0.0 0.00 0.00 0.00 80 1021.4
20260903012001 58 26 2.0 0.0 0.00 0.00 0.00 80 1021.4
20260903011501 58 51 2.0 0.0 0.00 0.00 0.00 80 1021.4
20260903011002 58 359 2.0 0.0 0.00 0.00 0.00 80 1021.4
20260903010501 58 332 2.0 0.0 0.00 0.00 0.00 80 1021.3
20260903010001 58 333 2.0 0.0 0.00 0.00 0.00 79 1021.2
20260903005502 58 334 2.0 0.0 0.00 0.00 0.00 78 1021.3
20260903005001 59 338 1.0 0.0 0.00 0.00 0.00 77 1021.2
20260903004501 59 0 0.0 0.0 0.00 0.00 0.00 77 1021.2
20260903004002 59 2 2.0 0.0 0.00 0.00 0.00 76 1021.2
20260903003501 59 87 2.0 0.0 0.00 0.00 0.00 75 1021.2
20260903003002 60 22 1.0 0.0 0.00 0.00 0.00 74 1021.2
20260903002502 60 61 1.0 0.0 0.00 0.00 0.00 73 1021.2
20260903002001 60 19 1.0 0.0 0.00 0.00 0.00 73 1021.3
20260903001501 60 64 1.0 0.0 0.00 0.00 0.00 74 1021.3
20260903001002 59 92 1.0 0.0 0.00 0.00 0.00 77 1021.3
20260903000501 59 56 1.0 0.0 0.00 0.00 0.00 76 1021.3
20260903000001 60 106 2.0 0.0 0.00 0.00 0.00 72 1021.3
20260902235502 62 96 2.0 0.0 0.00 0.00 0.00 68 1021.3
20260902235001 61 0 0.0 0.0 0.00 0.00 0.00 69 1021.2
20260902234501 59 0 0.0 0.0 0.00 0.00 0.00 75 1021.3
20260902234002 61 313 4.0 0.0 0.00 0.00 0.00 70 1021.3
20260902233501 62 0 0.0 0.0 0.00 0.00 0.00 68 1021.3
20260902233001 61 328 0.0 0.0 0.00 0.00 0.00 69 1021.2
20260902232502 60 272 1.0 0.0 0.00 0.00 0.00 73 1021.3
20260902232001 61 297 2.0 0.0 0.00 0.00 0.00 72 1021.2
20260902231501 60 0 0.0 0.0 0.00 0.00 0.00 74 1021.2
20260902231002 60 0 0.0 0.0 0.00 0.00 0.00 74 1021.2
20260902230501 60 312 1.0 0.0 0.00 0.00 0.00 75 1021.2
20260902230002 62 317 2.0 0.0 0.00 0.00 0.00 70 1021.2
20260902225502 62 10 1.0 0.0 0.00 0.00 0.00 70 1021.2
20260902225001 62 49 0.0 0.0 0.00 0.00 0.00 70 1021.2
20260902224501 62 46 1.0 0.0 0.00 0.00 0.00 71 1021.2
20260902224002 62 81 1.0 0.0 0.00 0.00 0.00 71 1021.3
20260902223501 62 62 2.0 0.0 0.00 0.00 0.00 70 1021.3
20260902223001 62 47 2.0 0.0 0.00 0.00 0.00 69 1021.4
20260902222502 63 44 2.0 0.0 0.00 0.00 0.00 68 1021.3
20260902222001 63 70 1.0 0.0 0.00 0.00 0.00 68 1021.3
20260902221501 63 27 2.0 0.0 0.00 0.00 0.00 68 1021.1
20260902221002 63 43 2.0 0.0 0.00 0.00 0.00 68 1021.2
20260902220501 64 27 3.0 0.0 0.00 0.00 0.00 66 1021.2
20260902220001 64 43 2.0 0.0 0.00 0.00 0.00 63 1021.2
20260902215502 64 43 2.0 0.0 0.00 0.00 0.00 63 1021.1
20260902215001 64 21 1.0 0.0 0.00 0.00 0.00 62 1021.0
20260902214501 64 0 0.0 0.0 0.00 0.00 0.00 63 1021.2
20260902214002 63 329 1.0 0.0 0.00 0.00 0.00 64 1021.1
20260902213501 65 326 2.0 0.0 0.00 0.00 0.00 60 1021.0
20260902213001 66 346 1.0 0.0 0.00 0.00 0.00 56 1021.0
20260902212502 66 340 2.0 0.0 0.00 0.00 0.00 56 1020.8
20260902212001 65 325 3.0 0.0 0.00 0.00 0.00 56 1020.9
20260902211501 66 308 4.0 0.0 0.00 0.00 0.00 53 1020.9
20260902211002 68 336 3.0 0.0 0.00 0.00 0.00 50 1020.8
20260902210501 67 312 3.0 0.0 0.00 0.00 0.00 53 1020.8
20260902210002 66 305 3.0 0.0 0.00 0.00 0.00 56 1020.8
20260902205502 67 299 3.0 0.0 0.00 0.00 0.00 54 1020.7
20260902205001 65 307 3.0 0.0 0.00 0.00 0.00 61 1020.8
20260902204501 65 319 5.0 0.0 0.00 0.00 0.00 68 1020.8
20260902204002 65 315 4.0 0.0 0.00 0.00 0.00 66 1020.7
20260902203501 66 327 2.0 0.0 0.00 0.00 0.00 66 1020.7
20260902203001 66 189 1.0 0.0 0.00 0.00 0.00 59 1020.6
20260902202502 66 253 0.0 0.0 0.00 0.00 0.00 65 1020.6
20260902202001 68 314 2.0 0.0 0.00 0.00 0.00 60 1020.6
20260902201502 68 281 3.0 0.0 0.00 0.00 0.00 56 1020.6
20260902201002 68 318 2.0 0.0 0.00 0.00 0.00 58 1020.6
20260902200501 68 283 3.0 0.0 0.00 0.00 0.00 57 1020.6
20260902200001 67 271 2.0 0.0 0.00 0.00 0.00 62 1020.5
20260902195502 67 255 2.0 0.0 0.00 0.00 0.00 63 1020.6
20260902195001 66 224 1.0 0.0 0.00 0.00 0.00 66 1020.6
20260902194502 66 216 3.0 0.0 0.00 0.00 0.00 66 1020.6
20260902194002 69 206 0.0 0.0 0.00 0.00 0.00 59 1020.6
20260902193501 68 302 2.0 0.0 0.00 0.00 0.00 60 1020.6
20260902193001 69 295 3.0 0.0 0.00 0.00 0.00 59 1020.4
20260902192502 70 282 4.0 0.0 0.00 0.00 0.00 55 1020.3
20260902192002 70 280 4.0 0.0 0.00 0.00 0.00 53 1020.3
20260902191501 70 273 3.0 0.0 0.00 0.00 0.00 56 1020.4
20260902191002 69 270 5.0 0.0 0.00 0.00 0.00 57 1020.3
20260902190501 69 278 3.0 0.0 0.00 0.00 0.00 57 1020.3
20260902190001 70 254 3.0 0.0 0.00 0.00 0.00 57 1020.3
20260902185502 70 249 5.0 0.0 0.00 0.00 0.00 58 1020.1
20260902185001 69 243 1.0 0.0 0.00 0.00 0.00 60 1020.1
20260902184501 69 300 3.0 0.0 0.00 0.00 0.00 60 1020.0
20260902184002 69 249 1.0 0.0 0.00 0.00 0.00 60 1020.0
20260902183501 69 313 5.0 0.0 0.00 0.00 0.00 60 1019.9
20260902183002 69 244 2.0 0.0 0.00 0.00 0.00 60 1019.9
20260902182502 69 251 3.0 0.0 0.00 0.00 0.00 60 1019.8
20260902182002 69 262 3.0 0.0 0.00 0.00 0.00 60 1019.7
20260902181502 69 242 3.0 0.0 0.00 0.00 0.00 59 1019.7
20260902181001 69 250 2.0 0.0 0.00 0.00 0.00 60 1019.8
20260902180502 69 238 4.0 0.0 0.00 0.00 0.00 59 1019.7
20260902180002 69 240 3.0 0.0 0.00 0.00 0.00 57 1019.6
20260902175501 69 241 3.0 0.0 0.00 0.00 0.00 55 1019.6
20260902175001 70 241 4.0 0.0 0.00 0.00 0.00 53 1019.6
20260902174502 71 242 4.0 0.0 0.00 0.00 0.00 50 1019.6